Regional Weather Roundup
Issued by NWS

Home | Current Version | Previous Version | Text Only | Print | Product List | Glossary Off
Versions: 1 2 3 4 5 6 7 8 9 10 11 12 13 14 15 16 17 18 19 20 21 22 23 24 25 26 27 28 29 30 31 32 33 34 35 36 37 38 39 40 41 42 43 44 45 46 47 48 49 50

181
ASUS43 KOAX 061902
RWRNE

WEATHER ROUNDUP FOR NEBRASKA
NATIONAL WEATHER SERVICE OMAHA NE
100 PM CST SAT FEB 06 2016

NOTES: SATELLITE DATA IS BEING USED TO AUGMENT CLOUD COVER ABOVE
       12000 FEET.
       "FAIR" INDICATES FEW OR NO CLOUDS BELOW 12,000 FEET WITH NO
       SIGNIFICANT WEATHER AND/OR OBSTRUCTIONS TO VISIBILITY.

  * THESE STATIONS DO NOT REPORT WEATHER SUCH AS RAIN...SNOW OR FOG.

NEZ001>004-019>022-054>056-062000-
NEBRASKA PANHANDLE

CITY           SKY/WX    TMP DP  RH WIND       PRES   REMARKS
SCOTTSBLUFF    CLOUDY    41  24  51 W22G30    30.07F
ALLIANCE       CLOUDY    35  26  69 W14       30.05F WCI  26
CHADRON        CLOUDY    41  26  55 SW14      30.02F
SIDNEY         CLOUDY    39  26  59 W16       30.12F WCI  30
$$

NEZ057>060-069>072-079>082-062000-
SOUTHWEST NEBRASKA

CITY           SKY/WX    TMP DP  RH WIND       PRES   REMARKS
NORTH PLATTE   CLOUDY    34  20  56 W15       30.12F WCI  24
IMPERIAL       CLOUDY    34  21  59 W9        30.14F WCI  27
MCCOOK         CLOUDY    32  18  56 SW14      30.17F WCI  22
$$

NEZ005>010-023>029-035>040-094-062000-
NORTH CENTRAL NEBRASKA

CITY           SKY/WX    TMP DP  RH WIND       PRES   REMARKS
VALENTINE      CLOUDY    44  27  51 W18       29.98F
AINSWORTH      SUNNY     47  28  47 W16       29.98F
BROKEN BOW     SUNNY     37  24  59 W14       30.07F WCI  28
ORD            SUNNY     36  24  62 SW12      30.05F WCI  28
$$

NEZ041-046>049-061>064-073>077-083>087-062000-
SOUTH CENTRAL NEBRASKA

CITY           SKY/WX    TMP DP  RH WIND       PRES   REMARKS
GRAND ISLAND   SUNNY     34  21  59 SW18      30.13F WCI  23
HASTINGS       SUNNY     31  21  66 SW8G17    30.15F WCI  23
$$

NEZ011>018-030>034-042>045-062000-
NORTHEAST NEBRASKA

CITY           SKY/WX    TMP DP  RH WIND       PRES   REMARKS
NORFOLK        SUNNY     35  24  64 S14       30.05F WCI  26
COLUMBUS *     SUNNY     37  19  48 S13G18    30.11F WCI  29
TEKAMAH        SUNNY     33  28  81 S9        30.13F WCI  25
$$

NEZ050>053-065>068-078-088>093-062000-
SOUTHEAST NEBRASKA

CITY           SKY/WX    TMP DP  RH WIND       PRES   REMARKS
LINCOLN        SUNNY     36  27  69 S12       30.19F WCI  28
OMAHA EPPLEY   MOSUNNY   38  27  64 SW13      30.17F WCI  30
FALLS CITY     SUNNY     45  29  53 W13       30.23F
NEBRASKA CITY  SUNNY     36  29  77 SW14      30.21F WCI  27
$$

NEZ044-045-051>053-067-062000-
OMAHA AREA

CITY           SKY/WX    TMP DP  RH WIND       PRES   REMARKS
OMAHA EPPLEY   MOSUNNY   38  27  64 SW13      30.17F WCI  30
OFFUTT AFB     SUNNY     38  27  65 S8        30.17F WCI  32
WAHOO          FAIR      37  27  65 SW14G20   30.15F WCI  29
$$




USA.gov is the U.S. government's official web portal to all federal, state and local government web resources and services.